Regional Weather Roundup
Issued by NWS State College, PA

Home | Current Version | Previous Version | Text Only | Print | Product List | Glossary Off
Versions: 1 2 3 4 5 6 7 8 9 10 11 12 13 14 15 16 17 18 19 20 21 22 23 24 25 26 27 28 29 30 31 32 33 34 35 36 37 38 39 40 41 42 43 44 45 46 47 48 49 50

000
ASUS41 KCTP 220310
RWRCTP

REGIONAL WEATHER ROUNDUP
NATIONAL WEATHER SERVICE STATE COLLEGE PA
1100 PM EDT SAT APR 21 2018

Note: "fair" indicates few or no clouds below 12,000 feet with no
significant weather and/or obstructions to visibility.

* = STATION THAT DOES NOT REPORT PRECIPITATION /E.G. RAIN...SNOW...ETC/
    THUNDER OR FOG.

PAZ002>004-007>009-013>016-020>023-029>032-220400-
WESTERN PENNSYLVANIA

CITY           SKY/WX    TMP DP  RH WIND       PRES   REMARKS
ERIE           FAIR      37  29  72 CALM      30.42R
MEADVILLE      FAIR      42  21  43 NE5       30.39R
FRANKLIN*      FAIR      43  21  41 NE9       30.38S
NEW CASTLE     FAIR      46  28  49 N5        30.39S
BEAVER COUNTY  NOT AVBL
BUTLER*        FAIR      47  30  51 N5        30.37S
PITTSBURGH INT CLOUDY    51  23  33 N7        30.36R
PITTSBURGH     FAIR      51  22  31 NW5       30.35S
INDIANA*       MOCLDY    45  32  61 CALM      30.39S
LATROBE        FAIR      46  27  46 CALM      30.36F
WASHINGTON CO* CLOUDY    47  32  56 CALM      30.38S
$$

PAZ004>006-010>012-017>019-024>028-033>037-041-042-045-046-049>053-220400-
CENTRAL PENNSYLVANIA

CITY           SKY/WX    TMP DP  RH WIND       PRES   REMARKS
BRADFORD       FAIR      41  17  38 N6        30.38S
DUBOIS         FAIR      44  23  43 NE8       30.36R
CLEARFIELD     FAIR      48  19  31 NE5       30.36S
JOHNSTOWN      FAIR      48  19  31 N3        30.34S
ALTOONA        FAIR      49  30  48 CALM      30.35S
STATE COLLEGE  FAIR      49  20  31 N7        30.36R
WILLIAMSPORT   FAIR      44  25  47 CALM      30.37R
SELINSGROVE    FAIR      38  33  82 CALM      30.37R
FT INDIANTOWN  FAIR      45  36  70 CALM      30.36R HAZE
CAPITAL CITY   FAIR      50  32  50 CALM      30.36R
HARRISBURG     MOCLDY    51  31  46 E6        30.35R
YORK           FAIR      49  31  49 CALM      30.35S
$$

PAZ038>040-043-044-047-048-054-055-060>062-067>071-220400-
EASTERN PENNSYLVANIA

CITY           SKY/WX    TMP DP  RH WIND       PRES   REMARKS
SCRANTON       FAIR      44  24  45 NE3       30.36S
MOUNT POCONO   FAIR      40  19  43 NW8       30.34S
ALLENTOWN      FAIR      48  24  39 N6        30.36R
QUAKERTOWN*    CLEAR     45  32  61 CALM      30.36R
READING        FAIR      52  29  41 CALM      30.35R
LANCASTER      FAIR      49  30  48 W5        30.35S
COATESVILLE    FAIR      50  27  40 W5        30.37R
POTTSTOWN      FAIR      47  30  51 CALM      30.37R
BLUE BELL      FAIR      45  32  61 CALM      30.37S
DOYLESTOWN     FAIR      48  28  46 NE5       30.35R
WILLOW GROVE   NOT AVBL
NORTH PHILA    FAIR      52  29  41 W3        30.37R
PHILADELPHIA   MOCLDY    52  31  44 SW5       30.36S
$$




USA.gov is the U.S. government's official web portal to all federal, state and local government web resources and services.